FW5273 Weather Reports


time (UTC)temp
F
wind
direction
speed
knots
gust
knots
rain 1hr
in
rain 24hr
in
rain mn
in
humidity
%
barometer
mb
20260509043038 0 0.0 0.0 0.00 0.00 0.00
20260509042038 0 0.0 0.0 0.00 0.00 0.00
20260509041056 0 0.0 0.0 0.00 0.00 0.00
20260509040036 0 0.0 0.0 0.00 0.00 0.00
20260509035036 0 0.0 0.0 0.00 0.00 0.00
20260509034117 0 0.0 0.0 0.00 0.00 0.00
20260509033037 0 0.0 0.0 0.00 0.00 0.00
20260509032037 0 0.0 0.0 0.00 0.00 0.00
20260509031058 0 0.0 0.0 0.00 0.00 0.00
20260509030057 0 0.0 0.0 0.00 0.00 0.00
20260509025537 0 0.0 0.0 0.00 0.00 0.00
20260509024536 0 0.0 0.0 0.00 0.00 0.00
20260509023536 0 0.0 0.0 0.00 0.00 0.00
20260509022557 0 0.0 0.0 0.00 0.00 0.00
20260509021539 0 0.0 0.0 0.00 0.00 0.00
20260509020537 0 0.0 0.0 0.00 0.00 0.00
20260509015537 0 0.0 0.0 0.00 0.00 0.00
20260509014537 0 0.0 0.0 0.00 0.00 0.00
20260509013536 0 0.0 0.0 0.00 0.00 0.00
20260509013035 52 0.0 0.0 0.00 0.00 0.00 34
20260509012541 52 0 6.1 0.0 0.00 0.00 0.00 34
20260509012040 52 0 2.6 7.0 0.00 0.00 0.00 34
20260509011040 52 0 2.6 5.2 0.00 0.00 0.00 33
20260509010040 53 0 4.3 9.6 0.00 0.00 0.00 32
20260509005103 54 0 0.9 6.1 0.00 0.00 0.00 32
20260509004039 54 0 2.6 7.8 0.00 0.00 0.00 30
20260509003059 55 0 2.6 7.8 0.00 0.00 0.00 30
20260509002040 55 0 2.6 7.8 0.00 0.00 0.00 30
20260509001042 55 0 2.6 7.0 0.00 0.00 0.00 28
20260509000040 55 0 2.6 8.7 0.00 0.00 0.00 28
20260508235041 56 0 1.7 7.8 0.00 0.00 0.00 27
20260508234121 55 0 2.6 7.0 0.00 0.00 0.00 25
20260508233100 56 0 3.5 7.8 0.00 0.00 0.00 23
20260508232040 56 0 1.7 7.0 0.00 0.00 0.00 24
20260508231039 57 0 4.3 9.6 0.00 0.00 0.00 22
20260508230038 57 0 6.1 8.7 0.00 0.00 0.00 19
20260508225039 57 0 2.6 7.0 0.00 0.00 0.00 19
20260508224038 57 0 3.5 8.7 0.00 0.00 0.00 19
20260508223039 58 0 5.2 8.7 0.00 0.00 0.00 24
20260508222039 57 0 4.3 8.7 0.00 0.00 0.00 25
20260508221101 58 0 3.5 7.8 0.00 0.00 0.00 25
20260508220040 58 0 4.3 8.7 0.00 0.00 0.00 27
20260508215042 57 0 5.2 10.4 0.00 0.00 0.00 27
20260508214039 57 0 7.0 9.6 0.00 0.00 0.00 26
20260508213040 59 0 5.2 10.4 0.00 0.00 0.00 25
20260508212040 58 0 3.5 8.7 0.00 0.00 0.00 25
20260508211059 57 0 6.1 9.6 0.00 0.00 0.00 26
20260508210043 58 0 6.1 8.7 0.00 0.00 0.00 26
20260508205040 57 0 5.2 8.7 0.00 0.00 0.00 26
20260508204038 58 0 6.1 8.7 0.00 0.00 0.00 26
20260508203039 58 0 4.3 9.6 0.00 0.00 0.00 26
20260508202058 58 0 4.3 8.7 0.00 0.00 0.00 26
20260508201059 58 0 4.3 7.8 0.00 0.00 0.00 27
20260508200100 58 0 4.3 8.7 0.00 0.00 0.00 27
20260508195040 59 0 3.5 8.7 0.00 0.00 0.00 28
20260508194101 60 0 3.5 7.8 0.00 0.00 0.00 28
20260508193041 58 0 4.3 10.4 0.00 0.00 0.00 30
20260508192040 57 0 4.3 8.7 0.00 0.00 0.00 29
20260508191040 58 0 2.6 7.8 0.00 0.00 0.00 27
20260508190039 57 0 4.3 9.6 0.00 0.00 0.00 27
20260508185038 57 0 4.3 9.6 0.00 0.00 0.00 28
20260508184040 57 0 4.3 9.6 0.00 0.00 0.00 29
20260508183039 57 0 3.5 9.6 0.00 0.00 0.00 29
20260508182037 0 0.0 0.0 0.00 0.00 0.00
20260508181037 0 0.0 0.0 0.00 0.00 0.00
20260508180058 0 0.0 0.0 0.00 0.00 0.00
20260508175035 0 0.0 0.0 0.00 0.00 0.00
20260508174035 0 0.0 0.0 0.00 0.00 0.00
20260508173057 0 0.0 0.0 0.00 0.00 0.00
20260508172036 0 0.0 0.0 0.00 0.00 0.00
20260508171038 0 0.0 0.0 0.00 0.00 0.00
20260508170056 0 0.0 0.0 0.00 0.00 0.00
20260508165039 0 0.0 0.0 0.00 0.00 0.00
20260508164037 0 0.0 0.0 0.00 0.00 0.00
20260508163058 0 0.0 0.0 0.00 0.00 0.00
20260508162037 0 0.0 0.0 0.00 0.00 0.00
20260508161037 0 0.0 0.0 0.00 0.00 0.00
20260508160037 0 0.0 0.0 0.00 0.00 0.00
20260508155036 0 0.0 0.0 0.00 0.00 0.00
20260508154037 0 0.0 0.0 0.00 0.00 0.00
20260508153057 0 0.0 0.0 0.00 0.00 0.00
20260508152036 0 0.0 0.0 0.00 0.00 0.00
20260508151035 0 0.0 0.0 0.00 0.00 0.00
20260508150059 0 0.0 0.0 0.00 0.00 0.00
20260508145037 0 0.0 0.0 0.00 0.00 0.00
20260508144538 0 0.0 0.0 0.00 0.00 0.00
20260508143556 0 0.0 0.0 0.00 0.00 0.00
20260508142537 0 0.0 0.0 0.00 0.00 0.00
20260508141538 0 0.0 0.0 0.00 0.00 0.00
20260508140557 0 0.0 0.0 0.00 0.00 0.00
20260508135616 0 0.0 0.0 0.00 0.00 0.00
20260508134539 0 0.0 0.0 0.00 0.00 0.00
20260508133537 0 0.0 0.0 0.00 0.00 0.00
20260508132535 0 0.0 0.0 0.00 0.00 0.00
20260508131536 0 0.0 0.0 0.00 0.00 0.00
20260508130537 0 0.0 0.0 0.00 0.00 0.00
20260508125535 0 0.0 0.0 0.00 0.00 0.00
20260508124536 0 0.0 0.0 0.00 0.00 0.00
20260508123539 0 0.0 0.0 0.00 0.00 0.00
20260508123038 0 0.0 0.0 0.00 0.00 0.00
20260508122038 0 0.0 0.0 0.00 0.00 0.00
20260508121037 0 0.0 0.0 0.00 0.00 0.00
20260508120038 0 0.0 0.0 0.00 0.00 0.00
20260508115539 0 0.0 0.0 0.00 0.00 0.00
20260508114538 0 0.0 0.0 0.00 0.00 0.00
20260508113539 0 0.0 0.0 0.00 0.00 0.00
20260508112537 0 0.0 0.0 0.00 0.00 0.00
20260508111538 0 0.0 0.0 0.00 0.00 0.00
20260508110536 0 0.0 0.0 0.00 0.00 0.00
20260508105537 0 0.0 0.0 0.00 0.00 0.00
20260508104619 0 0.0 0.0 0.00 0.00 0.00
20260508103538 0 0.0 0.0 0.00 0.00 0.00
20260508102538 0 0.0 0.0 0.00 0.00 0.00
20260508101538 0 0.0 0.0 0.00 0.00 0.00
20260508100538 0 0.0 0.0 0.00 0.00 0.00
20260508095537 0 0.0 0.0 0.00 0.00 0.00
20260508094538 0 0.0 0.0 0.00 0.00 0.00
20260508093537 0 0.0 0.0 0.00 0.00 0.00
20260508092537 0 0.0 0.0 0.00 0.00 0.00
20260508091537 0 0.0 0.0 0.00 0.00 0.00
20260508090559 0 0.0 0.0 0.00 0.00 0.00
20260508085559 0 0.0 0.0 0.00 0.00 0.00
20260508084556 0 0.0 0.0 0.00 0.00 0.00
20260508083537 0 0.0 0.0 0.00 0.00 0.00
20260508082538 0 0.0 0.0 0.00 0.00 0.00
20260508081616 0 0.0 0.0 0.00 0.00 0.00
20260508080536 0 0.0 0.0 0.00 0.00 0.00
20260508075535 0 0.0 0.0 0.00 0.00 0.00
20260508074536 0 0.0 0.0 0.00 0.00 0.00
20260508074035 0 0.0 0.0 0.00 0.00 0.00
20260508073037 0 0.0 0.0 0.00 0.00 0.00
20260508072037 0 0.0 0.0 0.00 0.00 0.00
20260508071037 0 0.0 0.0 0.00 0.00 0.00
20260508070036 0 0.0 0.0 0.00 0.00 0.00
20260508065036 0 0.0 0.0 0.00 0.00 0.00
20260508064037 0 0.0 0.0 0.00 0.00 0.00
20260508063038 0 0.0 0.0 0.00 0.00 0.00
20260508062037 0 0.0 0.0 0.00 0.00 0.00
20260508061039 0 0.0 0.0 0.00 0.00 0.00
20260508060118 0 0.0 0.0 0.00 0.00 0.00
20260508055036 0 0.0 0.0 0.00 0.00 0.00
20260508054038 0 0.0 0.0 0.00 0.00 0.00
20260508053036 0 0.0 0.0 0.00 0.00 0.00
20260508052057 0 0.0 0.0 0.00 0.00 0.00
20260508051036 0 0.0 0.0 0.00 0.00 0.00
20260508050035 0 0.0 0.0 0.00 0.00 0.00
20260508045038 0 0.0 0.0 0.00 0.00 0.00
20260508044037 0 0.0 0.0 0.00 0.00 0.00